NOAA-14
1 23455U 94089A   04365.40040280  .00000058  00000-0  55204-4 0  4173
2 23455  99.1156  44.7759 0010038 115.7904 244.4306 14.13522717515655
SICH-1
1 23657U 95046A   04364.93371533  .00000444  00000-0  54062-4 0  3131
2 23657  82.5274 196.0029 0023428 322.2901  37.6670 14.81037962502904
NOAA-15
1 25338U 98030A   04365.49364828  .00000079  00000-0  52229-4 0  8611
2 25338  98.5160  12.9464 0011351 128.7399 231.4814 14.24478399344733
RESURS
1 25394U 98043A   04365.23195934  .00000046  00000-0  38499-4 0  9820
2 25394  98.5608  73.0894 0000566 300.9209  59.1913 14.24043240336400
FENGYUN1
1 25730U 99025A   04365.38996155 -.00000132  00000-0 -49136-4 0  3131
2 25730  98.6046   7.9466 0014287 218.8759 141.1387 14.11785598290696
OKEAN-0
1 25860U 99039A   04364.70667393  .00000216  00000-0  40820-4 0  3170
2 25860  97.7753  31.8961 0001828  70.4341 289.7063 14.73177265293054
NOAA-16
1 26536U 00055A   04365.45470731 -.00000047  00000-0 -12212-5 0  1674
2 26536  98.9918 317.1408 0010517 179.7494 180.3684 14.12190895220247
NOAA-17
1 27453U 02032A   04365.40117925  .00000019  00000-0  27397-4 0  1911
2 27453  98.6811  75.3364 0012070 181.3719 178.7457 14.23613181130827
HUBBLE
1 20580U 90037B   04365.21595476  .00001069  00000-0  71887-4 0  2377
2 20580  28.4660 289.6031 0003935 271.7935  88.2225 14.99515570604852
UARS
1 21701U 91063B   04365.54417338 -.00000070  00000-0  13606-4 0  3434
2 21701  56.9792 153.6249 0006062  84.3482 275.8165 15.03720624728128
PO-34
1 25520U 98064B   04365.20588702  .00001272  00000-0  54585-4 0   827
2 25520  28.4603   1.8151 0005779 186.6122 173.4383 15.16003264340913
ISS
1 25544U 98067A   04366.15048138  .00025401  00000-0  19334-3 0  4832
2 25544  51.6396  40.1619 0003778 149.2199 311.5677 15.72095203349261
OO-38
1 26063U 00004C   04365.40762504  .00000028  00000-0  29903-4 0  2470
2 26063 100.2234 188.3966 0037028 169.8047 190.3896 14.35692492258070
NO-45
1 26932U 01043D   04365.38844269  .00000018  00000-0  39215-4 0  9287
2 26932  67.0601 302.1753 0008409 279.5093  80.5082 14.29463104169677
